Wind_Speed
46 44 47 48 43 45 46 46 54 53 55 55 55 55 57 54 51 50 51 51 48 50 52 47 40 43 49 53 58 61 60 60 60 60 61 59 58 56 54 51 47 46 44 43
51 47 50 49 48 52 55 56 57 58 59 56 55 55 56 54 54 51 47 47 51 51 47 43 45 50 53 59 58 58 56 56 54 57 59 59 57 55 49 46 45 43 43 45
46 44 46 53 49 52 54 57 59 63 56 55 56 57 56 55 53 49 48 50 48 44 46 47 54 58 61 61 57 52 53 53 56 57 57 56 52 48 50 48 44 44 44 45
57 57 61 60 58 59 62 60 60 61 58 54 54 55 55 50 49 48 47 46 44 47 51 56 61 62 63 60 55 50 49 52 53 52 53 52 52 51 47 44 45 47 45 43
65 63 65 63 61 62 65 62 60 56 56 54 61 55 52 48 48 50 49 49 52 55 59 62 65 61 57 57 55 52 48 51 52 52 52 49 45 43 44 42 40 42 44 47
63 67 72 65 63 66 54 64 56 54 55 56 53 58 51 51 50 52 53 56 59 62 65 64 62 61 54 53 54 51 48 48 51 47 44 41 37 35 36 39 41 45 49 50
65 67 68 63 59 59 61 60 55 55 58 58 56 54 54 48 50 58 61 64 66 67 68 66 64 62 54 50 49 50 49 49 45 38 37 39 44 44 43 44 47 49 48 50
51 57 57 57 60 60 56 58 59 56 58 57 50 46 47 51 55 61 66 68 67 67 66 64 56 54 52 53 53 51 46 44 41 38 37 38 40 40 43 43 44 45 47 49
55 58 60 58 57 58 57 56 60 60 57 57 57 54 52 56 61 64 69 72 69 64 62 57 53 51 53 54 49 46 42 40 41 42 41 42 45 46 43 43 44 44 46 46
57 60 59 58 58 61 65 65 66 65 58 54 54 57 60 62 65 69 67 65 64 62 59 56 54 54 52 43 42 40 39 39 39 40 38 38 42 42 40 40 41 42 39 41
57 58 61 61 61 62 62 56 51 52 54 56 58 61 64 65 67 66 63 63 61 58 54 54 54 50 44 40 34 36 38 38 40 42 43 43 40 39 38 39 37 34 32 33
47 48 52 52 51 49 48 51 54 57 59 61 65 67 67 67 64 62 59 59 55 52 47 44 43 42 37 33 33 35 36 36 35 33 30 31 33 35 36 34 30 29 28 28
46 48 49 46 49 53 55 58 61 62 63 62 60 60 61 60 58 58 58 58 57 54 46 39 38 37 32 30 31 32 31 29 26 27 27 29 32 34 35 29 27 24 23 22
44 42 44 52 55 59 60 59 59 59 57 55 54 54 52 54 55 55 57 58 58 55 46 39 35 30 28 27 26 23 22 23 22 23 26 29 31 31 27 22 19 18 15 18
48 48 50 53 55 54 52 51 50 47 46 48 48 44 46 46 46 50 57 58 55 45 35 30 31 27 25 25 22 21 19 20 21 22 23 25 22 15 14 15 16 18 21 23
46 45 43 42 40 40 42 44 45 44 42 36 32 31 31 34 37 38 42 42 40 33 28 31 27 24 24 22 22 24 19 18 19 20 18 17 14 12 12 14 16 18 21 21
32 31 31 33 34 33 33 32 26 22 18 13 13 15 17 22 23 16 6 3 7 11 18 21 22 21 17 16 19 17 16 17 16 16 14 12 9 8 8 10 12 15 18 20
24 21 19 16 14 14 11 11 11 9 8 8 9 10 12 11 9 7 2 3 7 10 12 15 18 19 17 17 16 15 14 15 15 14 12 11 10 11 12 15 17 19 20 21
15 13 11 7 8 8 9 11 11 10 8 6 6 8 8 8 7 5 3 5 8 12 10 12 15 15 17 17 15 14 14 14 15 14 13 13 13 14 15 16 17 18 18 19
15 14 10 7 10 9 10 10 11 11 8 5 5 7 8 8 7 6 5 6 7 11 14 18 19 18 17 16 17 16 14 15 13 13 12 11 12 13 14 15 15 16 17 19
15 16 15 12 10 11 12 10 9 8 7 8 9 9 7 7 8 8 9 9 9 10 13 16 19 20 20 20 20 17 14 14 13 11 10 9 11 12 12 13 14 15 17 19
14 14 13 13 12 11 12 12 12 12 12 12 13 13 12 11 11 11 11 11 13 12 11 11 11 14 16 17 16 15 13 12 12 10 9 9 10 10 11 12 14 16 18 20
13 12 13 12 12 12 12 14 16 17 17 17 17 16 15 14 14 12 11 10 12 13 11 9 9 10 10 11 12 14 11 11 10 9 9 9 9 10 11 12 14 16 18 20
17 20 20 18 19 18 19 20 20 18 17 15 13 13 14 15 16 14 11 10 10 10 10 11 12 12 12 11 12 11 11 10 10 10 9 9 9 10 11 13 15 17 18 20
15 17 18 19 19 18 17 16 15 14 14 13 13 14 12 12 13 14 13 12 12 12 13 13 13 12 12 11 11 12 11 12 12 10 10 10 11 12 13 14 16 18 19 21
13 15 17 18 20 20 20 18 17 17 18 17 17 16 16 16 16 16 16 16 16 15 15 13 12 12 12 12 13 12 11 13 13 12 12 12 13 14 15 16 17 19 20 21
14 15 13 14 15 17 18 19 18 18 19 20 19 18 18 18 18 18 17 17 17 16 15 15 13 12 13 13 13 13 13 14 14 14 15 15 15 16 17 18 20 21 22 23
Wind_Direction
254 260 268 270 265 260 253 259 268 277 280 281 283 286 285 282 284 279 280 286 288 289 289 287 287 290 289 290 289 287 287 287 286 288 290 289 290 291 290 288 288 285 281 276
261 261 263 258 254 253 260 271 276 275 271 275 282 280 282 277 278 279 284 285 285 284 282 285 292 293 290 286 284 286 286 287 288 288 290 290 289 289 289 288 286 281 276 272
257 256 266 262 265 267 272 276 277 268 275 275 279 282 276 270 278 282 283 282 283 283 286 289 293 290 288 289 291 293 293 291 287 288 289 289 289 288 286 286 280 274 272 272
261 272 267 271 271 273 275 274 272 270 279 275 280 274 270 275 278 282 280 279 282 286 285 287 287 290 292 295 295 293 290 286 285 287 287 286 286 286 286 281 275 271 272 277
270 272 274 272 273 274 272 264 270 273 270 270 271 267 271 278 277 275 280 284 285 282 283 287 288 288 292 291 287 286 289 285 285 283 282 283 284 287 282 277 276 276 277 281
268 268 269 275 274 270 264 263 273 279 273 273 264 265 269 273 271 276 282 280 279 281 282 285 285 285 287 286 284 287 290 283 283 284 282 280 284 286 282 276 276 277 279 283
267 267 267 268 259 260 271 276 279 276 268 265 259 261 266 274 278 282 279 278 278 280 284 288 288 288 289 290 291 294 290 285 286 286 285 279 276 279 282 280 280 284 285 284
261 262 259 266 271 279 279 282 280 269 259 258 260 266 268 280 279 276 275 276 282 286 288 290 288 286 287 289 291 288 285 284 283 282 288 278 279 282 284 283 283 284 288 292
254 259 271 275 276 273 271 269 262 256 256 264 276 288 284 274 273 275 277 279 283 285 285 285 286 286 285 288 284 281 281 278 277 280 276 272 278 282 286 287 288 292 294 296
268 270 271 269 266 264 260 260 263 267 271 281 281 272 269 272 275 277 278 279 282 284 284 282 281 282 284 282 280 282 280 278 277 274 271 279 281 285 287 287 291 293 295 299
266 266 263 258 257 258 260 268 277 281 277 274 275 277 277 277 277 278 280 279 276 275 276 277 278 279 279 279 281 281 282 279 276 273 276 279 282 283 288 291 292 292 299 303
252 253 255 258 263 270 277 278 275 273 274 274 273 273 276 278 280 277 275 273 273 272 273 272 274 275 275 278 283 284 280 276 278 277 279 282 282 285 288 288 291 295 294 303
252 256 260 265 269 267 267 268 269 270 272 275 277 277 279 279 279 279 280 280 277 274 271 270 268 270 273 279 281 277 280 280 278 278 280 287 286 285 286 288 292 291 299 301
257 258 259 259 262 264 266 269 271 273 276 278 278 277 277 278 278 276 274 271 269 270 274 264 263 266 271 272 266 273 272 272 275 285 287 288 294 291 287 283 276 289 296 304
253 255 255 259 263 267 269 271 273 275 275 274 277 281 280 281 282 281 275 271 272 272 265 248 250 259 260 256 253 265 267 274 282 287 294 301 301 299 290 273 275 280 284 296
256 259 260 263 267 266 268 271 272 274 278 277 279 281 288 287 287 293 274 266 263 262 240 237 241 242 246 249 251 263 265 277 288 297 296 305 300 296 293 287 289 289 290 295
257 263 267 269 270 274 272 272 273 267 273 273 278 280 284 288 294 315 337 215 213 216 226 230 229 227 230 242 250 249 262 278 292 294 284 295 304 305 304 304 302 302 301 301
261 258 259 259 262 266 264 263 262 230 225 253 278 298 314 309 317 327 332 178 189 200 215 225 223 224 234 238 238 254 270 281 284 278 274 278 287 294 300 304 305 304 304 305
238 227 229 239 268 272 253 243 226 211 236 265 300 315 319 316 317 318 292 228 212 208 208 216 223 238 229 234 248 257 269 276 278 274 269 274 282 294 304 307 309 311 314 315
223 209 217 256 252 236 227 225 227 242 259 276 286 311 324 326 343 334 303 272 256 243 239 241 245 232 236 244 254 257 265 275 279 270 269 275 286 299 304 310 314 321 326 328
221 227 236 242 251 246 235 226 234 248 272 285 283 282 283 288 293 307 309 297 273 254 249 249 249 251 249 246 250 251 263 275 266 262 267 278 293 299 306 313 321 329 332 334
224 232 231 225 227 238 245 254 260 266 268 272 278 278 281 276 282 288 293 287 273 262 262 266 264 257 247 244 247 254 259 253 251 254 263 281 292 300 307 320 328 332 334 333
230 222 225 234 246 261 265 269 270 268 267 270 274 277 277 270 270 274 286 288 268 255 250 244 244 244 241 246 253 259 239 237 242 246 267 281 290 300 311 320 325 332 336 337
237 241 243 251 258 261 267 271 274 275 276 273 268 269 274 270 264 263 270 270 254 240 243 246 251 249 251 260 262 237 234 238 234 249 268 278 290 300 311 318 323 330 333 336
251 256 258 259 261 263 264 268 269 269 271 271 269 266 269 275 269 265 265 261 252 253 259 262 257 251 254 261 242 234 242 235 237 252 268 281 291 302 309 316 320 326 329 332
284 277 275 272 268 266 267 268 266 267 268 271 272 269 262 262 267 269 265 257 253 253 259 265 260 254 252 247 235 239 245 238 241 254 267 279 290 297 305 311 315 321 325 328
293 280 272 272 271 268 264 265 264 264 265 264 263 264 264 265 264 265 262 257 255 254 256 259 256 253 250 239 234 241 245 243 247 256 265 274 282 290 297 303 307 312 317 323
Height
5674 5676 5678 5683 5687 5687 5686 5690 5685 5694 5690 5692 5694 5693 5692 5690 5690 5690 5687 5685 5682 5682 5680 5676 5673 5671 5668 5664 5660 5654 5649 5646 5641 5637 5634 5631 5626 5623 5620 5618 5615 5613 5610 5608
5662 5664 5667 5669 5672 5675 5676 5677 5674 5678 5679 5681 5680 5677 5676 5676 5675 5674 5674 5673 5671 5668 5665 5661 5659 5657 5655 5650 5644 5640 5635 5631 5627 5622 5619 5616 5613 5610 5607 5605 5603 5600 5597 5595
5646 5650 5650 5648 5666 5666 5665 5665 5667 5663 5672 5667 5664 5662 5662 5661 5660 5661 5660 5657 5655 5652 5651 5649 5646 5643 5637 5633 5630 5627 5623 5618 5615 5610 5606 5603 5600 5597 5594 5592 5590 5587 5585 5582
5629 5631 5627 5645 5651 5653 5650 5652 5652 5652 5654 5651 5649 5647 5646 5646 5646 5645 5643 5641 5639 5638 5636 5634 5630 5626 5621 5617 5615 5612 5608 5605 5601 5597 5594 5590 5587 5585 5581 5579 5577 5575 5573 5570
5614 5614 5618 5626 5636 5639 5636 5637 5639 5639 5637 5634 5633 5631 5633 5634 5632 5630 5628 5625 5623 5621 5619 5616 5613 5610 5606 5602 5598 5597 5593 5590 5588 5584 5581 5577 5574 5572 5568 5566 5564 5563 5560 5558
5601 5600 5600 5617 5619 5619 5616 5617 5625 5624 5620 5620 5618 5616 5621 5615 5614 5614 5612 5608 5606 5604 5602 5599 5596 5594 5590 5588 5585 5582 5578 5575 5573 5571 5567 5564 5562 5559 5557 5555 5552 5550 5547 5544
5590 5587 5589 5600 5600 5599 5601 5614 5607 5605 5605 5603 5603 5603 5602 5602 5602 5599 5596 5594 5590 5587 5584 5583 5582 5580 5576 5574 5572 5569 5564 5561 5559 5557 5555 5553 5551 5548 5546 5543 5540 5537 5533 5530
5576 5576 5577 5585 5582 5582 5587 5586 5590 5590 5589 5589 5587 5586 5589 5588 5585 5582 5579 5575 5572 5570 5567 5566 5565 5563 5562 5560 5555 5553 5550 5548 5546 5545 5543 5541 5539 5536 5534 5531 5527 5524 5520 5516
5565 5567 5566 5568 5567 5568 5570 5575 5577 5578 5576 5575 5574 5572 5571 5570 5568 5565 5562 5558 5554 5552 5549 5547 5547 5546 5545 5543 5541 5539 5538 5536 5534 5533 5531 5530 5528 5525 5522 5520 5517 5513 5509 5504
5551 5553 5554 5554 5555 5556 5558 5558 5558 5560 5562 5562 5561 5558 5556 5554 5551 5548 5543 5539 5536 5535 5534 5531 5531 5530 5529 5527 5528 5525 5524 5523 5522 5520 5519 5518 5516 5514 5512 5509 5506 5502 5498 5493
5535 5537 5540 5542 5542 5541 5541 5543 5545 5546 5545 5545 5543 5540 5536 5534 5531 5527 5522 5521 5519 5518 5515 5515 5515 5515 5514 5515 5514 5513 5512 5511 5509 5508 5507 5506 5505 5504 5501 5499 5496 5492 5489 5484
5523 5526 5526 5528 5528 5529 5530 5529 5529 5528 5526 5524 5521 5518 5516 5515 5511 5506 5503 5503 5503 5503 5502 5501 5501 5502 5502 5503 5503 5502 5501 5499 5498 5498 5497 5496 5495 5494 5492 5489 5486 5483 5480 5478
5513 5513 5514 5514 5514 5513 5512 5511 5510 5509 5506 5504 5502 5499 5497 5496 5494 5490 5488 5487 5487 5487 5488 5488 5489 5490 5492 5492 5493 5493 5491 5491 5491 5491 5489 5488 5486 5484 5481 5479 5477 5475 5473 5471
5498 5500 5502 5499 5498 5496 5496 5494 5493 5492 5490 5488 5488 5483 5480 5478 5477 5473 5470 5467 5466 5468 5472 5476 5478 5480 5481 5483 5485 5485 5485 5485 5485 5484 5482 5480 5476 5473 5470 5470 5470 5469 5468 5466
5482 5483 5484 5483 5482 5481 5480 5479 5478 5478 5477 5475 5472 5468 5466 5462 5459 5454 5448 5446 5448 5455 5458 5461 5466 5470 5473 5475 5477 5479 5479 5479 5478 5477 5474 5471 5468 5465 5464 5464 5464 5464 5462 5460
5471 5471 5471 5472 5470 5468 5466 5466 5466 5463 5462 5461 5459 5458 5453 5450 5446 5438 5428 5428 5434 5440 5446 5450 5455 5460 5464 5467 5470 5472 5473 5473 5472 5469 5468 5466 5463 5462 5460 5460 5459 5458 5457 5454
5460 5460 5461 5460 5459 5457 5456 5454 5454 5453 5452 5453 5451 5449 5447 5443 5438 5431 5423 5422 5426 5433 5440 5444 5449 5453 5457 5461 5464 5465 5466 5466 5464 5463 5463 5461 5460 5458 5457 5456 5454 5453 5451 5449
5450 5451 5452 5452 5451 5450 5449 5448 5447 5448 5449 5448 5448 5446 5443 5439 5435 5430 5427 5427 5429 5433 5437 5441 5445 5449 5452 5456 5458 5459 5459 5459 5459 5458 5458 5457 5456 5454 5453 5452 5450 5448 5446 5443
5445 5446 5446 5447 5446 5446 5446 5446 5445 5446 5447 5446 5445 5443 5441 5438 5435 5433 5431 5431 5431 5433 5436 5439 5442 5445 5448 5450 5451 5452 5453 5453 5453 5453 5452 5452 5451 5450 5448 5447 5445 5442 5440 5437
5438 5441 5442 5444 5444 5444 5444 5443 5444 5444 5444 5442 5442 5440 5438 5437 5435 5434 5433 5433 5433 5434 5435 5437 5439 5441 5443 5445 5446 5447 5448 5448 5447 5448 5448 5447 5446 5445 5444 5442 5440 5437 5435 5432
5435 5437 5439 5440 5441 5440 5441 5441 5441 5441 5440 5439 5439 5438 5437 5436 5434 5433 5432 5432 5431 5432 5432 5434 5435 5436 5438 5440 5441 5442 5442 5442 5443 5443 5443 5443 5442 5441 5440 5438 5436 5433 5431 5427
5431 5433 5434 5435 5436 5436 5437 5437 5436 5436 5436 5435 5435 5434 5434 5433 5432 5431 5430 5429 5428 5428 5429 5429 5430 5431 5432 5434 5435 5436 5436 5437 5438 5439 5439 5439 5438 5437 5436 5434 5432 5429 5427 5423
5428 5429 5430 5431 5432 5432 5432 5431 5431 5431 5431 5430 5429 5429 5429 5428 5428 5427 5426 5425 5425 5425 5425 5425 5426 5428 5428 5429 5430 5431 5432 5433 5434 5435 5435 5435 5434 5433 5432 5430 5428 5426 5423 5419
5424 5425 5426 5426 5426 5426 5426 5426 5426 5425 5424 5424 5423 5423 5423 5423 5423 5423 5423 5422 5422 5422 5422 5423 5423 5424 5424 5425 5425 5426 5428 5429 5430 5431 5431 5431 5430 5429 5427 5426 5423 5421 5419 5415
5420 5420 5420 5420 5420 5420 5420 5419 5419 5419 5419 5419 5418 5418 5418 5418 5419 5418 5418 5418 5418 5419 5419 5419 5419 5419 5420 5420 5421 5423 5424 5425 5426 5427 5427 5427 5426 5425 5423 5421 5419 5417 5414 5411
5415 5415 5415 5414 5414 5413 5413 5413 5413 5413 5413 5413 5413 5413 5413 5413 5413 5413 5413 5414 5414 5414 5415 5415 5415 5415 5416 5416 5417 5418 5419 5421 5422 5422 5422 5422 5421 5420 5419 5417 5415 5412 5409 5406
5409 5409 5408 5408 5407 5406 5406 5406 5406 5406 5406 5406 5406 5406 5406 5407 5407 5408 5408 5408 5408 5409 5410 5410 5410 5411 5411 5412 5413 5414 5415 5416 5417 5417 5417 5417 5416 5415 5413 5412 5410 5407 5404 5401